#timestamp,LO_Frequency 
1444165215.8,286046998.5
1444165235.7,286047000.1
1444165255.6,286047001.0
1444165275.6,286046996.7
1444165295.5,286046999.9
1444165315.4,286047000.2
1444165335.3,286046998.2
1444165355.3,286047002.6
1444165375.2,286047001.2
1444165395.1,286046998.7
1444165415.0,286046998.9
1444165415.9,286046998.9
1444165435.9,286046998.4
1444165455.8,286046999.7
1444165475.7,286046999.7
1444165495.6,286046999.7
1444165515.6,286047002.3
1444165535.5,286046998.3
1444165555.4,286047000.3
1444165575.3,286047002.2
1444165595.3,286046998.3
1444165615.2,286047002.4
1444165635.1,286046996.7
1444165655.0,286047005.5
1444165656.0,286047005.5
1444165675.9,286047021.2
1444165695.8,286047024.0
1444165715.7,286047025.2
1444165735.7,286047015.8
1444165755.6,286047019.1
1444165775.5,286047022.0
1444165795.4,286047012.9
1444165815.4,286047016.4
1444165835.3,286047016.6
1444165855.2,286047016.6
1444165875.1,286047011.9
1444165895.1,286047013.0
1444165896.0,286047013.0
1444165915.9,286047008.5
1444165935.8,286047006.3
1444165955.8,286047001.3
1444165975.7,286047014.7
1444165995.6,286047010.4
1444166015.5,286047005.5
1444166035.5,286047002.9
1444166055.4,286046989.2
1444166075.3,286046985.7
1444166095.2,286046990.4
1444166115.2,286046987.2
1444166135.1,286046991.5
1444166136.0,286046991.5
1444166155.0,286046993.3
1444166155.9,286046993.3
1444166175.9,286046999.1
1444166195.8,286046989.0
1444166215.7,286046990.3
1444166235.8,286046994.2
1444166255.7,286046992.7
1444166275.6,286046990.2
1444166295.6,286046994.0
1444166315.5,286046992.1
1444166335.4,286046997.9
1444166355.3,286046990.3
1444166375.3,286046996.2
1444166395.2,286046993.3
1444166415.1,286046999.2
1444166435.0,286046994.6
1444166436.0,286046994.6
1444166455.9,286047000.5
1444166475.8,286046993.8
1444166495.7,286046997.4
1444166515.7,286046993.3
1444166535.6,286046996.6
1444166555.5,286046997.0
1444166575.4,286046999.4
1444166595.4,286046997.6
1444166615.3,286046995.8
1444166635.2,286046995.5
1444166655.1,286046998.7
1444166675.1,286046997.7
1444166676.0,286046997.7
1444166695.0,286046999.6
1444166695.9,286046999.6
1444166715.8,286046995.1
1444166735.8,286047000.7
1444166755.7,286046995.5
1444166775.6,286046996.5
1444166795.5,286047001.1
1444166815.5,286046997.7
1444166835.4,286046997.9
1444166855.3,286046998.9
1444166875.2,286046997.0
1444166895.2,286046998.1
1444166915.1,286046999.8
1444166935.0,286047001.1
1444166935.9,286047001.1
1444166955.9,286046994.6
1444166975.8,286046997.6
1444166995.7,286046997.8
1444167015.6,286046998.9
1444167035.6,286046998.1
1444167055.5,286047000.6
1444167075.4,286046999.0
1444167095.3,286046999.6
1444167115.3,286046997.9
1444167135.2,286046999.0
1444167155.1,286046996.9
1444167175.0,286047000.4
1444167176.0,286047000.4
1444167195.9,286046999.6
1444167215.8,286046997.0
1444167235.7,286047001.1
1444167255.6,286046997.1
1444167275.6,286046998.8
1444167295.5,286046998.8
1444167315.4,286046998.5
1444167335.3,286047000.8
1444167355.3,286046997.3
1444167375.2,286046999.9
1444167395.1,286047000.1
1444167415.0,286047001.0
1444167416.0,286047001.0
1444167435.9,286046998.4
1444167455.8,286046998.4
1444167475.7,286046999.3
1444167495.7,286046996.8
1444167515.6,286046998.5
1444167535.5,286047002.6
1444167555.4,286046997.8
1444167575.4,286046996.5
1444167595.3,286046999.9
1444167615.2,286046998.6
1444167635.1,286047000.4
1444167655.1,286046999.1
1444167656.0,286046999.1
1444167675.0,286047000.4
1444167675.9,286047000.4
1444167695.8,286046998.3
1444167715.8,286046999.6
1444167735.7,286047000.5
1444167755.6,286046998.1
1444167775.5,286047002.6
1444167795.5,286046999.2
1444167815.4,286046998.9
1444167835.3,286047000.8
1444167855.2,286046999.0
1444167875.2,286046999.2
1444167895.1,286047000.3
1444167915.0,286046998.2
1444167915.9,286046998.2
1444167935.9,286047003.1
1444167955.8,286047001.8
1444167975.7,286046999.7
1444167995.6,286047002.2
1444168015.6,286047003.7
1444168035.5,286046997.7
1444168055.4,286046998.1
1444168075.3,286047002.6
1444168095.3,286047000.6
1444168115.2,286046998.7
1444168135.1,286046999.8
1444168155.0,286047002.8
1444168156.0,286047002.8
1444168175.9,286046993.6
1444168195.8,286046998.8
1444168215.7,286047002.7
1444168235.7,286046998.6
1444168255.6,286046998.2
1444168275.5,286047000.9
1444168295.4,286046999.3
1444168315.4,286047000.0
1444168335.3,286047000.0
1444168355.2,286046999.0
1444168375.1,286047001.1
1444168395.1,286046997.5
1444168396.0,286046997.5
1444168415.0,286047003.9
1444168415.9,286047003.9
1444168435.8,286046993.5
1444168455.8,286047002.3
1444168475.7,286046999.4
1444168495.6,286046998.4
1444168515.5,286046998.5
1444168535.5,286047001.2
1444168555.4,286046998.9
1444168575.3,286046999.7
1444168595.2,286047002.2
1444168615.2,286047000.8
1444168635.1,286047000.6
1444168655.0,286047001.1
1444168655.9,286047001.1
1444168675.9,286046997.5
1444168695.8,286046999.0
1444168715.7,286046998.1
1444168735.6,286047002.0
1444168755.6,286046999.4
1444168775.5,286046998.6
1444168795.4,286047002.4
